This demonstration page uses our WeatherBlox Daily Observations layout. Learn more.

Left ArrowRight Arrow

Hourly Observations for January 10, 2017

Temp ( °F °C ) Dew Point ( °F °C ) Humidity (%) Winds ( mph kmh ) Pressure ( in mb ) Visibility ( mi km ) Precip ( " mm )
12:40 am 00:40 Cloudy 48 9 45 7 87 87 SW 12 19 29.91 1013 10 16 0.00 0.00
12:53 am 00:53 Cloudy with Light Rain 49 9.4 46 7.8 90 90 SW 10 17 29.87 1012 10 16 0.00 0.00
1:01 am 01:01 Cloudy with Light Rain 49 9.4 46 7.8 90 90 WSW 7 11 29.91 1013 10 16 0.00 0.00
1:53 am 01:53 Cloudy with Light Rain 47 8.3 46 7.8 97 97 WSW 7 11 29.88 1012 8 13 0.02 0.51
2:53 am 02:53 Cloudy with Rain 48 8.9 46 7.8 93 93 SSW 13 20 29.86 1011 6 10 0.09 2.29
3:03 am 03:03 Cloudy with Light Rain 48 9 46 8 94 94 SW 10 17 29.91 1013 7 11 0.00 0.00
3:53 am 03:53 Cloudy with Light Rain 48 8.9 47 8.3 96 96 SW 10 17 29.85 1011 5 8 0.09 2.29
4:13 am 04:13 Cloudy with Light Rain 48 9 46 8 94 94 SW 7 11 29.85 1011 9 14 0.00 0.00
4:53 am 04:53 Cloudy 50 10 48 8.9 93 93 S 17 28 29.81 1010 10 16 0.03 0.76
5:53 am 05:53 Cloudy with Light Rain 50 10 49 9.4 96 96 SSW 15 24 29.79 1009 10 16 0.02 0.51
6:53 am 06:53 Cloudy with Light Rain 51 10.6 49 9.4 92 92 S 16 26 29.77 1008 10 16 0.01 0.25
7:49 am 07:49 Cloudy 52 11 48 9 88 88 S 21 33 29.77 1008 10 16 0.01 0.25
7:53 am 07:53 Cloudy 51 10.6 49 9.4 92 92 S 23 37 29.74 1007 10 16 0.01 0.25
8:53 am 08:53 Cloudy with Light Rain 51 10.6 49 9.4 92 92 S 21 33 29.74 1007 10 16 0.00 0.00
9:12 am 09:12 Cloudy with Light Rain 52 11 50 10 94 94 S 21 33 29.77 1008 2 3 0.00 0.00
9:29 am 09:29 Cloudy with Light Rain 51 10.6 50 10 96 96 S 16 26 29.77 1008 4 6 0.04 1.02
9:53 am 09:53 Cloudy with Light Rain 52 11.1 50 10 93 93 S 28 44 29.73 1007 5 8 0.08 2.03
10:53 am 10:53 Cloudy with Light Rain 52 11.1 50 10 93 93 S 26 43 29.71 1006 6 10 0.07 1.78
11:53 am 11:53 Cloudy with Light Rain 52 11.1 50 10 93 93 S 25 41 29.65 1004 6 10 0.12 3.05
12:53 pm 12:53 Cloudy with Rain 52 11.1 50 10 93 93 S 26 43 29.60 1002 4 6 0.13 3.30
1:04 pm 13:04 Cloudy with Rain 52 11 52 11 100 100 S 30 48 29.59 1002 3 4 0.00 0.00
1:15 pm 13:15 Cloudy with Light Rain 52 11.1 50 10 93 93 S 35 56 29.56 1001 5 8 0.07 1.78
1:37 pm 13:37 Cloudy with Rain 51 10.6 51 10.6 100 100 S 36 57 29.56 1001 3 4 0.09 2.29
1:50 pm 13:50 Cloudy with Light Rain 52 11 50 10 94 94 S 32 52 29.53 1000 4 6 0.00 0.00
1:53 pm 13:53 Cloudy with Rain 51 10.6 50 10 96 96 S 35 56 29.53 1000 5 8 0.12 3.05
2:24 pm 14:24 Cloudy with Rain 52 11 52 11 100 100 S 31 50 29.50 999 5 8 0.00 0.00
2:53 pm 14:53 Cloudy with Light Rain 51 10.6 51 10.6 100 100 S 43 69 29.49 999 5 8 0.05 1.27
3:13 pm 15:13 Cloudy with Light Rain 51 10.6 50 10 96 96 S 37 59 29.50 999 6 10 0.01 0.25
3:53 pm 15:53 Cloudy with Light Rain 51 10.6 50 10 96 96 S 40 65 29.46 998 10 16 0.01 0.25
4:53 pm 16:53 Cloudy with Light Rain 51 10.6 50 10 96 96 SW 23 37 29.53 1000 9 14 0.02 0.51
4:58 pm 16:58 Cloudy with Rain 52 11 52 11 100 100 WSW 17 28 29.53 1000 4 6 0.00 0.00
5:02 pm 17:02 Cloudy with Heavy Rain 52 11 52 11 100 100 SW 14 22 29.53 1000 2 3 0.00 0.00
5:10 pm 17:10 Cloudy with Heavy Rain 52 11 52 11 100 100 SW 17 28 29.53 1000 2 2 0.00 0.00
5:16 pm 17:16 Cloudy with Heavy Rain 54 12 50 10 88 88 S 17 28 29.50 999 2 3 0.00 0.00
5:26 pm 17:26 Cloudy with Rain 54 12 52 11 94 94 S 22 35 29.50 999 4 6 0.00 0.00
5:53 pm 17:53 Cloudy with Heavy Rain 53 11.7 51 10.6 93 93 SW 14 22 29.52 1000 4 6 0.44 11.18
5:57 pm 17:57 Cloudy with Heavy Rain 53 11.7 52 11.1 96 96 SSW 17 28 29.53 1000 2 3 0.08 2.03
6:11 pm 18:11 Cloudy with Rain 53 11.7 51 10.6 93 93 S 18 30 29.50 999 3 5 0.28 7.11
6:26 pm 18:26 Cloudy with Heavy Rain 54 12 52 11 94 94 S 21 33 29.50 999 3 4 0.00 0.00
6:37 pm 18:37 Cloudy with Rain 53 11.7 52 11.1 96 96 SSW 17 28 29.50 999 3 4 0.46 11.68
6:53 pm 18:53 Cloudy with Heavy Rain 53 11.7 51 10.6 93 93 SSW 14 22 29.49 999 2 3 0.65 16.51
7:03 pm 19:03 Cloudy with Light Rain 54 12 52 11 94 94 SSW 20 31 29.50 999 8 13 0.00 0.00
7:53 pm 19:53 Mostly Cloudy 52 11.1 51 10.6 97 97 S 20 31 29.48 998 10 16 0.04 1.02
7:57 pm 19:57 Mostly Cloudy 52 11.1 51 10.6 97 97 S 18 30 29.50 999 10 16 0.00 0.00
8:08 pm 20:08 Mostly Cloudy 52 11 52 11 100 100 S 15 24 29.50 999 10 16 0.00 0.00
8:53 pm 20:53 Clear 51 10.6 50 10 96 96 S 13 20 29.49 999 10 16 0.00 0.00
9:00 pm 21:00 Mostly Clear 52 11 50 10 94 94 S 17 28 29.50 999 10 16 0.00 0.00
9:39 pm 21:39 Mostly Cloudy 51 10.6 50 10 96 96 S 9 15 29.50 999 10 16 0.00 0.00
9:49 pm 21:49 Mostly Cloudy 52 11 50 10 94 94 S 12 19 29.53 1000 10 16 0.00 0.00
9:53 pm 21:53 Cloudy 51 10.6 50 10 96 96 S 9 15 29.52 1000 10 16 0.00 0.00
10:17 pm 22:17 Cloudy 52 11.1 50 10 93 93 S 10 17 29.53 1000 10 16 0.00 0.00
10:53 pm 22:53 Mostly Cloudy 51 10.6 49 9.4 92 92 S 10 17 29.52 1000 10 16 0.00 0.00
11:53 pm 23:53 Cloudy 50 10 48 8.9 93 93 S 12 19 29.54 1001 10 16 0.00 0.00

Powered by AerisWeather